Wetterdaten: Donnerstag, 06.08.2015
Datum Zeit Temp. Auen Feucht Auen Luftdruck Regen Richtung Richtung Windben
06.08.2015 00:00 17,9 C 90 % 1015,0 hPa 0,0 mm SO 131 0,0 km/h (0 Bft)
06.08.2015 00:05 17,9 C 90 % 1015,0 hPa 0,0 mm SO 131 0,0 km/h (0 Bft)
06.08.2015 00:10 17,9 C 90 % 1015,1 hPa 0,0 mm SO 131 0,0 km/h (0 Bft)
06.08.2015 00:15 17,8 C 90 % 1015,0 hPa 0,0 mm SO 131 0,0 km/h (0 Bft)
06.08.2015 00:20 17,9 C 91 % 1015,0 hPa 0,0 mm SO 131 0,0 km/h (0 Bft)
06.08.2015 00:25 17,8 C 90 % 1015,0 hPa 0,0 mm SO 131 0,0 km/h (0 Bft)
06.08.2015 00:30 17,8 C 91 % 1015,0 hPa 0,0 mm SO 131 0,0 km/h (0 Bft)
06.08.2015 00:35 17,7 C 90 % 1015,0 hPa 0,0 mm SO 131 0,0 km/h (0 Bft)
06.08.2015 00:40 17,6 C 91 % 1015,0 hPa 0,0 mm SO 131 0,0 km/h (0 Bft)
06.08.2015 00:45 17,7 C 91 % 1015,0 hPa 0,0 mm S 172 0,0 km/h (0 Bft)
06.08.2015 00:50 17,6 C 91 % 1015,0 hPa 0,0 mm S 172 0,0 km/h (0 Bft)
06.08.2015 00:55 17,8 C 91 % 1015,0 hPa 0,0 mm S-SW 192 1,6 km/h (1 Bft)
06.08.2015 01:00 17,7 C 90 % 1015,0 hPa 0,0 mm S-SW 192 1,6 km/h (1 Bft)
06.08.2015 01:05 17,5 C 90 % 1014,9 hPa 0,0 mm S-SW 192 1,6 km/h (1 Bft)
06.08.2015 01:10 17,6 C 91 % 1014,9 hPa 0,0 mm S-SW 194 1,6 km/h (1 Bft)
06.08.2015 01:15 17,8 C 91 % 1015,1 hPa 0,0 mm S-SW 194 1,6 km/h (1 Bft)
06.08.2015 01:20 17,7 C 91 % 1015,1 hPa 0,0 mm S-SW 194 0,0 km/h (0 Bft)
06.08.2015 01:25 17,7 C 91 % 1015,0 hPa 0,0 mm S-SW 194 0,0 km/h (0 Bft)
06.08.2015 01:30 17,6 C 90 % 1015,0 hPa 0,0 mm S-SW 194 0,0 km/h (0 Bft)
06.08.2015 01:35 17,7 C 91 % 1015,0 hPa 0,0 mm S-SW 194 0,0 km/h (0 Bft)
06.08.2015 01:40 17,6 C 90 % 1015,0 hPa 0,0 mm S-SW 194 0,0 km/h (0 Bft)
06.08.2015 01:45 17,4 C 90 % 1015,0 hPa 0,0 mm S-SW 194 1,6 km/h (1 Bft)
06.08.2015 01:50 17,5 C 91 % 1014,9 hPa 0,0 mm SW 220 1,6 km/h (1 Bft)
06.08.2015 01:55 17,5 C 91 % 1014,8 hPa 0,0 mm W 263 3,2 km/h (1 Bft)
06.08.2015 02:00 17,1 C 90 % 1014,8 hPa 0,0 mm W 263 0,0 km/h (0 Bft)
06.08.2015 02:05 17,3 C 91 % 1014,9 hPa 0,0 mm W 263 0,0 km/h (0 Bft)
06.08.2015 02:10 17,3 C 90 % 1014,8 hPa 0,0 mm W 263 1,6 km/h (1 Bft)
06.08.2015 02:15 17,2 C 91 % 1014,8 hPa 0,0 mm W 277 3,2 km/h (1 Bft)
06.08.2015 02:20 17,4 C 91 % 1014,9 hPa 0,0 mm W 277 0,0 km/h (0 Bft)
06.08.2015 02:25 17,3 C 91 % 1014,9 hPa 0,0 mm W 277 1,6 km/h (1 Bft)
06.08.2015 02:30 16,9 C 90 % 1014,9 hPa 0,0 mm W 277 0,0 km/h (0 Bft)
06.08.2015 02:35 16,7 C 91 % 1014,9 hPa 0,0 mm W 277 0,0 km/h (0 Bft)
06.08.2015 02:40 16,8 C 91 % 1015,0 hPa 0,0 mm W 277 0,0 km/h (0 Bft)
06.08.2015 02:45 16,7 C 91 % 1015,0 hPa 0,0 mm W 277 0,0 km/h (0 Bft)
06.08.2015 02:50 16,7 C 91 % 1015,0 hPa 0,0 mm W 277 3,2 km/h (1 Bft)
06.08.2015 02:55 16,7 C 91 % 1015,0 hPa 0,0 mm W 277 1,6 km/h (1 Bft)
06.08.2015 03:00 16,5 C 91 % 1015,0 hPa 0,0 mm W 277 1,6 km/h (1 Bft)
06.08.2015 03:05 16,7 C 92 % 1015,1 hPa 0,0 mm W 277 3,2 km/h (1 Bft)
06.08.2015 03:10 16,6 C 91 % 1015,1 hPa 0,0 mm W 277 0,0 km/h (0 Bft)
06.08.2015 03:15 16,7 C 92 % 1015,0 hPa 0,0 mm W 277 0,0 km/h (0 Bft)
06.08.2015 03:20 16,8 C 92 % 1015,1 hPa 0,0 mm W 277 3,2 km/h (1 Bft)
06.08.2015 03:25 16,9 C 92 % 1015,1 hPa 0,0 mm W 277 3,2 km/h (1 Bft)
06.08.2015 03:30 16,8 C 92 % 1015,1 hPa 0,0 mm W 277 1,6 km/h (1 Bft)
06.08.2015 03:35 16,6 C 91 % 1015,1 hPa 0,0 mm W 277 0,0 km/h (0 Bft)
06.08.2015 03:40 16,5 C 92 % 1015,2 hPa 0,0 mm W 277 0,0 km/h (0 Bft)
06.08.2015 03:45 16,4 C 91 % 1015,2 hPa 0,0 mm W 277 0,0 km/h (0 Bft)
06.08.2015 03:50 16,4 C 92 % 1015,2 hPa 0,0 mm W 277 0,0 km/h (0 Bft)
06.08.2015 03:55 16,3 C 92 % 1015,1 hPa 0,0 mm W 277 0,0 km/h (0 Bft)
06.08.2015 04:00 16,2 C 92 % 1015,2 hPa 0,0 mm W 277 0,0 km/h (0 Bft)
06.08.2015 04:05 16,3 C 92 % 1015,1 hPa 0,0 mm W 277 0,0 km/h (0 Bft)
06.08.2015 04:10 16,3 C 92 % 1015,2 hPa 0,0 mm W 277 0,0 km/h (0 Bft)
06.08.2015 04:15 16,3 C 92 % 1015,2 hPa 0,0 mm W 277 0,0 km/h (0 Bft)
06.08.2015 04:20 16,3 C 92 % 1015,2 hPa 0,0 mm W 277 1,6 km/h (1 Bft)
06.08.2015 04:25 16,2 C 92 % 1015,3 hPa 0,0 mm W 277 0,0 km/h (0 Bft)
06.08.2015 04:30 16,0 C 92 % 1015,3 hPa 0,0 mm W 277 0,0 km/h (0 Bft)
06.08.2015 04:35 16,0 C 92 % 1015,3 hPa 0,0 mm W 277 0,0 km/h (0 Bft)
06.08.2015 04:40 15,8 C 92 % 1015,3 hPa 0,0 mm W 277 1,6 km/h (1 Bft)
06.08.2015 04:45 15,9 C 92 % 1015,3 hPa 0,0 mm W 277 0,0 km/h (0 Bft)
06.08.2015 04:50 15,9 C 92 % 1015,4 hPa 0,0 mm W 277 0,0 km/h (0 Bft)
06.08.2015 04:55 15,9 C 92 % 1015,4 hPa 0,0 mm W 277 0,0 km/h (0 Bft)
06.08.2015 05:00 16,1 C 92 % 1015,4 hPa 0,0 mm W 277 1,6 km/h (1 Bft)
06.08.2015 05:05 15,8 C 92 % 1015,5 hPa 0,0 mm W 277 0,0 km/h (0 Bft)
06.08.2015 05:10 15,6 C 92 % 1015,6 hPa 0,0 mm W 277 0,0 km/h (0 Bft)
06.08.2015 05:15 15,8 C 92 % 1015,7 hPa 0,0 mm W 277 1,6 km/h (1 Bft)
06.08.2015 05:20 15,6 C 92 % 1015,7 hPa 0,0 mm W 277 0,0 km/h (0 Bft)
06.08.2015 05:25 15,6 C 92 % 1015,7 hPa 0,0 mm W 277 1,6 km/h (1 Bft)
06.08.2015 05:30 15,7 C 92 % 1015,7 hPa 0,0 mm W 277 0,0 km/h (0 Bft)
06.08.2015 05:35 15,6 C 92 % 1015,7 hPa 0,0 mm W 277 0,0 km/h (0 Bft)
06.08.2015 05:40 15,7 C 92 % 1015,7 hPa 0,0 mm W 277 1,6 km/h (1 Bft)
06.08.2015 05:45 15,9 C 92 % 1015,8 hPa 0,0 mm W 277 3,2 km/h (1 Bft)
06.08.2015 05:50 16,1 C 92 % 1015,9 hPa 0,0 mm W 277 4,8 km/h (1 Bft)
06.08.2015 05:55 16,1 C 92 % 1015,9 hPa 0,0 mm W 277 1,6 km/h (1 Bft)
06.08.2015 06:00 16,1 C 92 % 1015,9 hPa 0,0 mm W 277 3,2 km/h (1 Bft)
06.08.2015 06:05 16,2 C 92 % 1015,9 hPa 0,0 mm W 277 1,6 km/h (1 Bft)
06.08.2015 06:10 16,3 C 92 % 1016,0 hPa 0,0 mm W 277 1,6 km/h (1 Bft)
06.08.2015 06:15 16,4 C 92 % 1016,0 hPa 0,0 mm W 277 3,2 km/h (1 Bft)
06.08.2015 06:20 16,3 C 92 % 1016,1 hPa 0,0 mm W 277 0,0 km/h (0 Bft)
06.08.2015 06:25 16,2 C 92 % 1016,1 hPa 0,0 mm W 277 0,0 km/h (0 Bft)
06.08.2015 06:30 16,3 C 92 % 1016,1 hPa 0,0 mm W 277 0,0 km/h (0 Bft)
06.08.2015 06:35 16,4 C 92 % 1016,1 hPa 0,0 mm W 277 0,0 km/h (0 Bft)
06.08.2015 06:40 16,5 C 92 % 1016,1 hPa 0,0 mm W 277 0,0 km/h (0 Bft)
06.08.2015 06:45 16,8 C 92 % 1016,1 hPa 0,0 mm W 277 1,6 km/h (1 Bft)
06.08.2015 06:50 17,5 C 92 % 1016,1 hPa 0,0 mm W 277 0,0 km/h (0 Bft)
06.08.2015 06:55 17,8 C 91 % 1016,1 hPa 0,0 mm W 277 1,6 km/h (1 Bft)
06.08.2015 07:00 18,4 C 91 % 1016,1 hPa 0,0 mm W 277 4,8 km/h (1 Bft)
06.08.2015 07:05 18,2 C 89 % 1016,1 hPa 0,0 mm W-NW 288 0,0 km/h (0 Bft)
06.08.2015 07:10 18,3 C 90 % 1016,1 hPa 0,0 mm W-NW 288 0,0 km/h (0 Bft)
06.08.2015 07:15 18,3 C 90 % 1016,2 hPa 0,0 mm W-NW 288 0,0 km/h (0 Bft)
06.08.2015 07:20 18,4 C 90 % 1016,2 hPa 0,0 mm W-NW 288 0,0 km/h (0 Bft)
06.08.2015 07:25 18,4 C 90 % 1016,1 hPa 0,0 mm W-NW 288 0,0 km/h (0 Bft)
06.08.2015 07:30 18,8 C 90 % 1016,2 hPa 0,0 mm W-NW 288 0,0 km/h (0 Bft)
06.08.2015 07:35 19,7 C 89 % 1016,2 hPa 0,0 mm W-NW 288 0,0 km/h (0 Bft)
06.08.2015 07:40 20,4 C 87 % 1016,2 hPa 0,0 mm W-NW 288 0,0 km/h (0 Bft)
06.08.2015 07:45 20,1 C 85 % 1016,2 hPa 0,0 mm W-NW 288 0,0 km/h (0 Bft)
06.08.2015 07:50 20,0 C 87 % 1016,3 hPa 0,0 mm W-NW 288 0,0 km/h (0 Bft)
06.08.2015 07:55 20,6 C 86 % 1016,3 hPa 0,0 mm W-NW 288 0,0 km/h (0 Bft)
06.08.2015 08:00 20,7 C 86 % 1016,3 hPa 0,0 mm W-NW 288 0,0 km/h (0 Bft)
06.08.2015 08:05 20,7 C 85 % 1016,3 hPa 0,0 mm W-NW 302 0,0 km/h (0 Bft)
06.08.2015 08:10 20,7 C 86 % 1016,4 hPa 0,0 mm W-NW 302 0,0 km/h (0 Bft)
06.08.2015 08:15 21,2 C 85 % 1016,4 hPa 0,0 mm W-NW 302 0,0 km/h (0 Bft)
06.08.2015 08:20 21,2 C 85 % 1016,4 hPa 0,0 mm NW 304 0,0 km/h (0 Bft)
06.08.2015 08:25 21,4 C 86 % 1016,5 hPa 0,0 mm NW 304 0,0 km/h (0 Bft)
06.08.2015 08:30 21,6 C 85 % 1016,5 hPa 0,0 mm NW 304 0,0 km/h (0 Bft)
06.08.2015 08:35 21,6 C 84 % 1016,5 hPa 0,0 mm NW 304 0,0 km/h (0 Bft)
06.08.2015 08:40 22,2 C 82 % 1016,5 hPa 0,0 mm NW 304 0,0 km/h (0 Bft)
06.08.2015 08:45 22,7 C 80 % 1016,4 hPa 0,0 mm NW 304 0,0 km/h (0 Bft)
06.08.2015 08:50 22,7 C 78 % 1016,5 hPa 0,0 mm NW 304 0,0 km/h (0 Bft)
06.08.2015 08:55 22,8 C 80 % 1016,4 hPa 0,0 mm NW 304 0,0 km/h (0 Bft)
06.08.2015 09:00 22,7 C 78 % 1016,5 hPa 0,0 mm NW 304 0,0 km/h (0 Bft)
06.08.2015 09:05 23,0 C 79 % 1016,5 hPa 0,0 mm NW 304 0,0 km/h (0 Bft)
06.08.2015 09:10 23,5 C 80 % 1016,5 hPa 0,0 mm NW 304 0,0 km/h (0 Bft)
06.08.2015 09:15 23,7 C 78 % 1016,5 hPa 0,0 mm NW 304 0,0 km/h (0 Bft)
06.08.2015 09:20 23,8 C 76 % 1016,5 hPa 0,0 mm NW 304 0,0 km/h (0 Bft)
06.08.2015 09:25 23,9 C 79 % 1016,5 hPa 0,0 mm O 101 0,0 km/h (0 Bft)
06.08.2015 09:30 24,3 C 79 % 1016,4 hPa 0,0 mm O-SO 107 3,2 km/h (1 Bft)
06.08.2015 09:35 24,4 C 78 % 1016,4 hPa 0,0 mm O-SO 113 3,2 km/h (1 Bft)
06.08.2015 09:40 24,4 C 77 % 1016,4 hPa 0,0 mm O-SO 113 3,2 km/h (1 Bft)
06.08.2015 09:45 24,6 C 78 % 1016,3 hPa 0,0 mm O-SO 113 3,2 km/h (1 Bft)
06.08.2015 09:50 24,7 C 77 % 1016,3 hPa 0,0 mm O 85 4,8 km/h (1 Bft)
06.08.2015 09:55 25,2 C 76 % 1016,3 hPa 0,0 mm O 85 3,2 km/h (1 Bft)
06.08.2015 10:00 25,2 C 78 % 1016,3 hPa 0,0 mm SO 134 4,8 km/h (1 Bft)
06.08.2015 10:05 25,3 C 77 % 1016,3 hPa 0,0 mm O 101 3,2 km/h (1 Bft)
06.08.2015 10:10 25,6 C 75 % 1016,4 hPa 0,0 mm SO 135 6,4 km/h (2 Bft)
06.08.2015 10:15 25,8 C 76 % 1016,4 hPa 0,0 mm SO 126 4,8 km/h (1 Bft)
06.08.2015 10:20 25,9 C 71 % 1016,4 hPa 0,0 mm O-SO 105 4,8 km/h (1 Bft)
06.08.2015 10:25 25,9 C 73 % 1016,3 hPa 0,0 mm O-SO 111 4,8 km/h (1 Bft)
06.08.2015 10:30 26,2 C 71 % 1016,3 hPa 0,0 mm O 82 4,8 km/h (1 Bft)
06.08.2015 10:35 26,2 C 68 % 1016,4 hPa 0,0 mm SO 134 4,8 km/h (1 Bft)
06.08.2015 10:40 26,5 C 69 % 1016,3 hPa 0,0 mm S-SO 158 6,4 km/h (2 Bft)
06.08.2015 10:45 26,7 C 70 % 1016,3 hPa 0,0 mm S-SO 153 4,8 km/h (1 Bft)
06.08.2015 10:50 26,7 C 68 % 1016,3 hPa 0,0 mm SO 128 3,2 km/h (1 Bft)
06.08.2015 10:55 27,3 C 65 % 1016,4 hPa 0,0 mm SO 128 1,6 km/h (1 Bft)
06.08.2015 11:00 27,1 C 65 % 1016,4 hPa 0,0 mm O-SO 115 3,2 km/h (1 Bft)
06.08.2015 11:05 27,3 C 67 % 1016,4 hPa 0,0 mm S-SO 161 4,8 km/h (1 Bft)
06.08.2015 11:10 27,3 C 70 % 1016,4 hPa 0,0 mm SO 142 4,8 km/h (1 Bft)
06.08.2015 11:15 27,4 C 65 % 1016,4 hPa 0,0 mm S 171 3,2 km/h (1 Bft)
06.08.2015 11:20 27,6 C 64 % 1016,3 hPa 0,0 mm S 171 3,2 km/h (1 Bft)
06.08.2015 11:25 27,7 C 68 % 1016,3 hPa 0,0 mm S 169 3,2 km/h (1 Bft)
06.08.2015 11:30 28,4 C 69 % 1016,2 hPa 0,0 mm S 188 4,8 km/h (1 Bft)
06.08.2015 11:35 28,3 C 66 % 1016,3 hPa 0,0 mm O-SO 121 3,2 km/h (1 Bft)
06.08.2015 11:40 28,3 C 63 % 1016,3 hPa 0,0 mm O-SO 107 3,2 km/h (1 Bft)
06.08.2015 11:45 28,7 C 59 % 1016,2 hPa 0,0 mm W-SW 255 4,8 km/h (1 Bft)
06.08.2015 11:50 29,6 C 60 % 1016,2 hPa 0,0 mm W-SW 250 4,8 km/h (1 Bft)
06.08.2015 11:55 29,6 C 57 % 1016,1 hPa 0,0 mm W 265 9,7 km/h (2 Bft)
06.08.2015 12:00 30,9 C 56 % 1016,2 hPa 0,0 mm W-SW 251 9,7 km/h (2 Bft)
06.08.2015 12:05 31,3 C 55 % 1016,2 hPa 0,0 mm W-NW 288 11,3 km/h (2 Bft)
06.08.2015 12:10 31,3 C 52 % 1016,1 hPa 0,0 mm W 259 11,3 km/h (2 Bft)
06.08.2015 12:15 31,6 C 53 % 1016,2 hPa 0,0 mm W 260 9,7 km/h (2 Bft)
06.08.2015 12:20 31,6 C 52 % 1016,2 hPa 0,0 mm W 270 8,0 km/h (2 Bft)
06.08.2015 12:25 31,7 C 51 % 1016,2 hPa 0,0 mm W 261 11,3 km/h (2 Bft)
06.08.2015 12:30 31,6 C 53 % 1016,1 hPa 0,0 mm W-SW 257 11,3 km/h (2 Bft)
06.08.2015 12:35 31,7 C 55 % 1016,1 hPa 0,0 mm W 267 14,5 km/h (3 Bft)
06.08.2015 12:40 31,8 C 54 % 1016,1 hPa 0,0 mm W-SW 255 8,0 km/h (2 Bft)
06.08.2015 12:45 31,9 C 52 % 1016,1 hPa 0,0 mm W 271 11,3 km/h (2 Bft)
06.08.2015 12:50 31,7 C 51 % 1016,1 hPa 0,0 mm W-SW 242 11,3 km/h (2 Bft)
06.08.2015 12:55 31,6 C 52 % 1016,1 hPa 0,0 mm W-SW 237 9,7 km/h (2 Bft)
06.08.2015 13:00 30,8 C 57 % 1016,0 hPa 0,0 mm W 271 9,7 km/h (2 Bft)
06.08.2015 13:05 31,7 C 56 % 1016,0 hPa 0,0 mm W-NW 287 6,4 km/h (2 Bft)
06.08.2015 13:10 32,0 C 53 % 1015,9 hPa 0,0 mm W 271 8,0 km/h (2 Bft)
06.08.2015 13:15 31,9 C 54 % 1015,9 hPa 0,0 mm W 280 6,4 km/h (2 Bft)
06.08.2015 13:20 31,7 C 52 % 1015,9 hPa 0,0 mm S-SO 152 4,8 km/h (1 Bft)
06.08.2015 13:25 31,6 C 55 % 1015,8 hPa 0,0 mm W-NW 294 8,0 km/h (2 Bft)
06.08.2015 13:30 31,8 C 49 % 1015,9 hPa 0,0 mm W-NW 286 8,0 km/h (2 Bft)
06.08.2015 13:35 32,1 C 55 % 1015,8 hPa 0,0 mm W-NW 283 8,0 km/h (2 Bft)
06.08.2015 13:40 32,3 C 48 % 1015,8 hPa 0,0 mm W 263 8,0 km/h (2 Bft)
06.08.2015 13:45 31,3 C 54 % 1015,8 hPa 0,0 mm W-NW 285 4,8 km/h (1 Bft)
06.08.2015 13:50 30,4 C 50 % 1015,7 hPa 0,0 mm W-NW 296 8,0 km/h (2 Bft)
06.08.2015 13:55 31,8 C 50 % 1015,7 hPa 0,0 mm SW 234 6,4 km/h (2 Bft)
06.08.2015 14:00 30,7 C 50 % 1015,6 hPa 0,0 mm S 169 6,4 km/h (2 Bft)
06.08.2015 14:05 31,3 C 53 % 1015,6 hPa 0,0 mm W-SW 258 4,8 km/h (1 Bft)
06.08.2015 14:10 31,8 C 51 % 1015,6 hPa 0,0 mm W 271 4,8 km/h (1 Bft)
06.08.2015 14:15 30,8 C 50 % 1015,5 hPa 0,0 mm S 179 4,8 km/h (1 Bft)
06.08.2015 14:20 30,6 C 54 % 1015,5 hPa 0,0 mm W-NW 292 6,4 km/h (2 Bft)
06.08.2015 14:25 31,7 C 55 % 1015,5 hPa 0,0 mm W 275 4,8 km/h (1 Bft)
06.08.2015 14:30 31,6 C 50 % 1015,5 hPa 0,0 mm S-SO 167 3,2 km/h (1 Bft)
06.08.2015 14:35 32,4 C 42 % 1015,5 hPa 0,0 mm W 278 6,4 km/h (2 Bft)
06.08.2015 14:40 31,3 C 49 % 1015,5 hPa 0,0 mm S-SO 167 4,8 km/h (1 Bft)
06.08.2015 14:45 31,1 C 49 % 1015,4 hPa 0,0 mm SW 223 3,2 km/h (1 Bft)
06.08.2015 14:50 31,8 C 44 % 1015,4 hPa 0,0 mm W 276 8,0 km/h (2 Bft)
06.08.2015 14:55 32,3 C 44 % 1015,4 hPa 0,0 mm W-NW 299 4,8 km/h (1 Bft)
06.08.2015 15:00 32,0 C 49 % 1015,4 hPa 0,0 mm W 279 6,4 km/h (2 Bft)
06.08.2015 15:05 31,5 C 51 % 1015,4 hPa 0,0 mm W 262 6,4 km/h (2 Bft)
06.08.2015 15:10 32,3 C 51 % 1015,3 hPa 0,0 mm W 276 6,4 km/h (2 Bft)
06.08.2015 15:15 32,7 C 43 % 1015,3 hPa 0,0 mm W 271 9,7 km/h (2 Bft)
06.08.2015 15:20 32,4 C 44 % 1015,3 hPa 0,0 mm W 261 14,5 km/h (3 Bft)
06.08.2015 15:25 32,2 C 49 % 1015,3 hPa 0,0 mm W-NW 292 11,3 km/h (2 Bft)
06.08.2015 15:30 32,5 C 47 % 1015,3 hPa 0,0 mm W-NW 285 11,3 km/h (2 Bft)
06.08.2015 15:35 32,4 C 46 % 1015,3 hPa 0,0 mm W-NW 294 8,0 km/h (2 Bft)
06.08.2015 15:40 32,4 C 43 % 1015,2 hPa 0,0 mm W 281 9,7 km/h (2 Bft)
06.08.2015 15:45 32,3 C 42 % 1015,2 hPa 0,0 mm W-SW 257 14,5 km/h (3 Bft)
06.08.2015 15:50 32,5 C 44 % 1015,3 hPa 0,0 mm W 265 9,7 km/h (2 Bft)
06.08.2015 15:55 32,2 C 44 % 1015,2 hPa 0,0 mm W 269 9,7 km/h (2 Bft)
06.08.2015 16:00 32,1 C 44 % 1015,2 hPa 0,0 mm W 279 8,0 km/h (2 Bft)
06.08.2015 16:05 32,1 C 40 % 1015,1 hPa 0,0 mm W 263 9,7 km/h (2 Bft)
06.08.2015 16:10 32,4 C 40 % 1015,1 hPa 0,0 mm W-SW 258 11,3 km/h (2 Bft)
06.08.2015 16:15 32,3 C 41 % 1015,1 hPa 0,0 mm W 279 9,7 km/h (2 Bft)
06.08.2015 16:20 32,3 C 37 % 1015,1 hPa 0,0 mm W-NW 284 9,7 km/h (2 Bft)
06.08.2015 16:25 32,4 C 37 % 1015,1 hPa 0,0 mm W 263 11,3 km/h (2 Bft)
06.08.2015 16:30 32,1 C 40 % 1015,1 hPa 0,0 mm W 264 8,0 km/h (2 Bft)
06.08.2015 16:35 31,6 C 42 % 1015,0 hPa 0,0 mm W 279 6,4 km/h (2 Bft)
06.08.2015 16:40 31,5 C 38 % 1015,0 hPa 0,0 mm W-NW 282 8,0 km/h (2 Bft)
06.08.2015 16:45 31,4 C 38 % 1014,9 hPa 0,0 mm W 271 4,8 km/h (1 Bft)
06.08.2015 16:50 31,3 C 39 % 1014,9 hPa 0,0 mm W 280 4,8 km/h (1 Bft)
06.08.2015 16:55 31,2 C 43 % 1014,9 hPa 0,0 mm W-NW 284 4,8 km/h (1 Bft)
06.08.2015 17:00 31,6 C 38 % 1014,8 hPa 0,0 mm W 281 4,8 km/h (1 Bft)
06.08.2015 17:05 31,2 C 41 % 1014,8 hPa 0,0 mm W-SW 239 3,2 km/h (1 Bft)
06.08.2015 17:10 31,2 C 42 % 1014,8 hPa 0,0 mm W-NW 289 3,2 km/h (1 Bft)
06.08.2015 17:15 31,6 C 38 % 1014,9 hPa 0,0 mm W 267 6,4 km/h (2 Bft)
06.08.2015 17:20 31,2 C 44 % 1014,8 hPa 0,0 mm W 274 3,2 km/h (1 Bft)
06.08.2015 17:25 30,9 C 40 % 1014,8 hPa 0,0 mm W 268 1,6 km/h (1 Bft)
06.08.2015 17:30 31,2 C 37 % 1014,7 hPa 0,0 mm W 279 4,8 km/h (1 Bft)
06.08.2015 17:35 31,4 C 34 % 1014,8 hPa 0,0 mm W 271 6,4 km/h (2 Bft)
06.08.2015 17:40 30,9 C 40 % 1014,8 hPa 0,0 mm W 271 0,0 km/h (0 Bft)
06.08.2015 17:45 30,5 C 42 % 1014,8 hPa 0,0 mm W 275 4,8 km/h (1 Bft)
06.08.2015 17:50 30,8 C 41 % 1014,8 hPa 0,0 mm W 268 6,4 km/h (2 Bft)
06.08.2015 17:55 30,4 C 46 % 1014,7 hPa 0,0 mm W 268 1,6 km/h (1 Bft)
06.08.2015 18:00 30,6 C 43 % 1014,8 hPa 0,0 mm W 274 3,2 km/h (1 Bft)
06.08.2015 18:05 30,4 C 46 % 1014,6 hPa 0,0 mm W 274 3,2 km/h (1 Bft)
06.08.2015 18:10 30,2 C 47 % 1014,6 hPa 0,0 mm W 274 3,2 km/h (1 Bft)
06.08.2015 18:15 30,2 C 44 % 1014,6 hPa 0,0 mm W 274 3,2 km/h (1 Bft)
06.08.2015 18:20 29,9 C 48 % 1014,6 hPa 0,0 mm W 274 1,6 km/h (1 Bft)
06.08.2015 18:25 29,4 C 50 % 1014,6 hPa 0,0 mm W 274 1,6 km/h (1 Bft)
06.08.2015 18:30 29,2 C 54 % 1014,5 hPa 0,0 mm W 274 3,2 km/h (1 Bft)
06.08.2015 18:35 29,1 C 54 % 1014,5 hPa 0,0 mm W 274 1,6 km/h (1 Bft)
06.08.2015 18:40 28,9 C 59 % 1014,5 hPa 0,0 mm W 274 1,6 km/h (1 Bft)
06.08.2015 18:45 28,4 C 61 % 1014,5 hPa 0,0 mm W 274 1,6 km/h (1 Bft)
06.08.2015 18:50 27,8 C 66 % 1014,4 hPa 0,0 mm W 274 1,6 km/h (1 Bft)
06.08.2015 18:55 27,4 C 62 % 1014,5 hPa 0,0 mm W 274 3,2 km/h (1 Bft)
06.08.2015 19:00 27,5 C 61 % 1014,4 hPa 0,0 mm W 274 1,6 km/h (1 Bft)
06.08.2015 19:05 27,3 C 59 % 1014,4 hPa 0,0 mm W 274 0,0 km/h (0 Bft)
06.08.2015 19:10 27,2 C 60 % 1014,4 hPa 0,0 mm W 274 1,6 km/h (1 Bft)
06.08.2015 19:15 27,3 C 58 % 1014,5 hPa 0,0 mm W 274 0,0 km/h (0 Bft)
06.08.2015 19:20 27,1 C 61 % 1014,5 hPa 0,0 mm W 274 0,0 km/h (0 Bft)
06.08.2015 19:25 26,7 C 64 % 1014,5 hPa 0,0 mm W 274 0,0 km/h (0 Bft)
06.08.2015 19:30 26,3 C 65 % 1014,5 hPa 0,0 mm W 274 1,6 km/h (1 Bft)
06.08.2015 19:35 25,9 C 65 % 1014,6 hPa 0,0 mm W 274 0,0 km/h (0 Bft)
06.08.2015 19:40 25,9 C 65 % 1014,6 hPa 0,0 mm W 274 0,0 km/h (0 Bft)
06.08.2015 19:45 25,4 C 69 % 1014,7 hPa 0,0 mm W 274 0,0 km/h (0 Bft)
06.08.2015 19:50 25,1 C 68 % 1014,8 hPa 0,0 mm W 274 0,0 km/h (0 Bft)
06.08.2015 19:55 24,7 C 70 % 1014,8 hPa 0,0 mm W 274 0,0 km/h (0 Bft)
06.08.2015 20:00 24,3 C 69 % 1014,8 hPa 0,0 mm W 274 1,6 km/h (1 Bft)
06.08.2015 20:05 24,2 C 71 % 1014,8 hPa 0,0 mm W 274 0,0 km/h (0 Bft)
06.08.2015 20:10 23,8 C 73 % 1014,9 hPa 0,0 mm W 274 1,6 km/h (1 Bft)
06.08.2015 20:15 23,7 C 73 % 1014,9 hPa 0,0 mm W 274 0,0 km/h (0 Bft)
06.08.2015 20:20 23,7 C 73 % 1014,9 hPa 0,0 mm W 274 1,6 km/h (1 Bft)
06.08.2015 20:25 23,1 C 76 % 1015,0 hPa 0,0 mm W 274 0,0 km/h (0 Bft)
06.08.2015 20:30 22,7 C 77 % 1015,0 hPa 0,0 mm W 274 0,0 km/h (0 Bft)
06.08.2015 20:35 22,4 C 78 % 1015,1 hPa 0,0 mm W 274 0,0 km/h (0 Bft)
06.08.2015 20:40 22,1 C 78 % 1015,1 hPa 0,0 mm W 274 0,0 km/h (0 Bft)
06.08.2015 20:45 21,2 C 81 % 1015,2 hPa 0,0 mm W 274 0,0 km/h (0 Bft)
06.08.2015 20:50 21,1 C 80 % 1015,2 hPa 0,0 mm W 274 1,6 km/h (1 Bft)
06.08.2015 20:55 21,2 C 79 % 1015,3 hPa 0,0 mm W 274 1,6 km/h (1 Bft)
06.08.2015 21:00 21,2 C 80 % 1015,3 hPa 0,0 mm W 274 1,6 km/h (1 Bft)
06.08.2015 21:05 21,3 C 79 % 1015,4 hPa 0,0 mm W 274 3,2 km/h (1 Bft)
06.08.2015 21:10 21,6 C 78 % 1015,4 hPa 0,0 mm W 274 3,2 km/h (1 Bft)
06.08.2015 21:15 21,0 C 79 % 1015,5 hPa 0,0 mm W 274 0,0 km/h (0 Bft)
06.08.2015 21:20 20,7 C 80 % 1015,6 hPa 0,0 mm W 274 4,8 km/h (1 Bft)
06.08.2015 21:25 20,9 C 79 % 1015,6 hPa 0,0 mm W 274 3,2 km/h (1 Bft)
06.08.2015 21:30 21,5 C 77 % 1015,7 hPa 0,0 mm W 274 4,8 km/h (1 Bft)
06.08.2015 21:35 21,2 C 77 % 1015,7 hPa 0,0 mm W 274 1,6 km/h (1 Bft)
06.08.2015 21:40 20,4 C 80 % 1015,7 hPa 0,0 mm W 274 1,6 km/h (1 Bft)
06.08.2015 21:45 20,1 C 80 % 1015,8 hPa 0,0 mm W 274 3,2 km/h (1 Bft)
06.08.2015 21:50 19,9 C 81 % 1015,7 hPa 0,0 mm W 274 1,6 km/h (1 Bft)
06.08.2015 21:55 19,7 C 82 % 1015,7 hPa 0,0 mm W 274 0,0 km/h (0 Bft)
06.08.2015 22:00 19,8 C 82 % 1015,7 hPa 0,0 mm W 274 1,6 km/h (1 Bft)
06.08.2015 22:05 19,8 C 81 % 1015,8 hPa 0,0 mm W 274 1,6 km/h (1 Bft)
06.08.2015 22:10 19,9 C 81 % 1015,8 hPa 0,0 mm W 274 1,6 km/h (1 Bft)
06.08.2015 22:15 19,6 C 82 % 1015,8 hPa 0,0 mm W 274 0,0 km/h (0 Bft)
06.08.2015 22:20 19,2 C 83 % 1015,8 hPa 0,0 mm W 274 0,0 km/h (0 Bft)
06.08.2015 22:25 19,3 C 83 % 1015,8 hPa 0,0 mm W 274 1,6 km/h (1 Bft)
06.08.2015 22:30 19,4 C 82 % 1015,8 hPa 0,0 mm W 274 1,6 km/h (1 Bft)
06.08.2015 22:35 19,6 C 82 % 1015,8 hPa 0,0 mm W 274 3,2 km/h (1 Bft)
06.08.2015 22:40 19,7 C 81 % 1015,8 hPa 0,0 mm W 274 1,6 km/h (1 Bft)
06.08.2015 22:45 19,4 C 81 % 1015,8 hPa 0,0 mm W 274 1,6 km/h (1 Bft)
06.08.2015 22:50 19,3 C 82 % 1015,8 hPa 0,0 mm W 274 1,6 km/h (1 Bft)
06.08.2015 22:55 19,2 C 82 % 1015,7 hPa 0,0 mm W 274 3,2 km/h (1 Bft)
06.08.2015 23:00 18,9 C 83 % 1015,7 hPa 0,0 mm W 274 1,6 km/h (1 Bft)
06.08.2015 23:05 18,9 C 83 % 1015,8 hPa 0,0 mm W 274 1,6 km/h (1 Bft)
06.08.2015 23:10 18,9 C 83 % 1015,8 hPa 0,0 mm W 274 1,6 km/h (1 Bft)
06.08.2015 23:15 18,7 C 83 % 1015,8 hPa 0,0 mm W 274 1,6 km/h (1 Bft)
06.08.2015 23:20 18,7 C 84 % 1015,8 hPa 0,0 mm W 274 1,6 km/h (1 Bft)
06.08.2015 23:25 18,3 C 84 % 1015,8 hPa 0,0 mm W 274 3,2 km/h (1 Bft)
06.08.2015 23:30 18,4 C 84 % 1015,7 hPa 0,0 mm W 274 0,0 km/h (0 Bft)
06.08.2015 23:35 18,6 C 84 % 1015,7 hPa 0,0 mm W 274 0,0 km/h (0 Bft)
06.08.2015 23:40 18,3 C 84 % 1015,7 hPa 0,0 mm W 274 1,6 km/h (1 Bft)
06.08.2015 23:45 18,2 C 85 % 1015,8 hPa 0,0 mm W 274 0,0 km/h (0 Bft)
06.08.2015 23:50 18,2 C 85 % 1015,7 hPa 0,0 mm W 274 1,6 km/h (1 Bft)
06.08.2015 23:55 18,0 C 85 % 1015,7 hPa 0,0 mm W 274 1,6 km/h (1 Bft)
_ Min-Zeit 05:10 17:35 18:50 - - - 00:00
Minimum _ 15,6 C 34 % 1014,4 hPa - - - 0,0 km/h (0 Bft)
_ Max-Zeit 15:20 03:05 08:25 00:00 - - 12:35
Maximum _ 32,8 C 92 % 1016,5 hPa 0,0 mm - - 14,5 km/h
W (3 Bft)
Durchschnitt _ 23,5 C 73 % 1015,5 hPa #0,0 mm W - 2,9 km/h (1 Bft)